SCP
0 0 -0 0 0 0 0 0 -0 0 0 -0 -0 0 0 0 0 0 0 0 0 0 0 0 0 0 0 0 0 0 0 0 0 0 0 0 0 0 0 0 0 0 0
0 0 0 0 -0 0 0 0 0 1 0 -0 0 0 0 0 0 0 0 0 0 0 0 0 0 0 0 0 0 0 0 0 0 0 0 0 0 0 0 0 0 0 0
0 1 0 1 0 0 0 0 0 1 0 -0 -0 0 0 0 0 0 0 0 0 0 0 0 0 0 0 0 0 0 0 0 0 0 0 0 0 0 0 0 0 0 0
1 2 1 1 0 0 1 1 0 0 1 0 0 0 0 0 0 0 0 0 0 0 0 0 0 0 0 0 0 0 0 0 0 0 0 0 0 0 0 0 0 0 0
1 1 1 1 1 1 1 1 0 0 0 1 0 0 0 0 0 0 0 0 0 0 0 0 0 0 0 0 0 0 0 0 0 0 0 0 0 0 0 0 0 0 0
1 1 0 1 2 1 1 0 0 2 3 1 1 0 0 0 -0 0 0 0 0 0 0 0 0 0 0 0 0 0 0 0 0 0 0 0 0 0 0 0 0 0 0
2 3 1 1 1 2 1 3 3 4 2 0 1 0 0 0 -0 0 1 0 0 0 0 0 0 0 0 0 0 0 0 0 0 0 0 0 0 0 0 0 0 0 0
4 4 2 1 1 4 6 5 4 3 1 0 0 0 0 0 1 1 0 0 0 0 0 0 0 0 0 0 0 0 0 0 0 0 0 0 0 0 0 0 0 0 0
3 3 2 2 5 7 6 5 3 1 1 0 0 0 0 0 0 0 0 -0 0 0 0 0 0 0 0 0 0 0 0 0 -0 -0 0 0 0 0 0 0 0 0 0
2 2 4 3 6 5 4 4 2 1 0 0 0 0 1 1 0 0 0 0 -0 0 0 0 0 1 1 0 0 0 -0 -0 -0 -0 -0 0 0 0 0 0 0 0 0
4 4 3 4 4 4 5 3 3 1 0 0 0 0 0 0 0 0 0 0 0 0 0 0 0 0 1 1 0 0 -0 -0 -0 -0 -0 0 0 0 0 0 0 0 0
0 0 3 0 0 -0 1 1 1 1 0 1 0 0 0 0 -0 0 0 0 0 0 0 0 1 -0 0 0 0 0 -0 -0 -0 0 0 0 0 0 0 0 0 0 0
0 0 0 0 0 0 0 -0 0 1 1 1 0 0 0 -0 -0 -0 0 0 0 0 0 0 0 0 -0 -0 0 0 0 0 0 0 0 0 0 0 0 0 0 0 0
1 0 0 0 0 -0 -0 0 1 0 0 0 0 0 0 0 0 0 0 0 0 0 -0 0 0 0 0 -0 0 0 0 0 0 0 0 0 0 0 0 0 0 0 0
0 0 0 0 0 0 0 1 4 2 2 1 1 1 0 0 0 0 1 0 0 0 -0 0 0 1 0 0 0 0 0 0 0 0 0 0 0 0 0 0 0 0 0
0 0 0 0 0 0 1 0 1 1 2 1 0 0 0 0 0 0 0 0 0 0 0 0 0 0 1 0 0 0 0 0 0 0 0 0 0 0 0 0 0 0 0
0 0 0 0 0 1 0 1 0 0 0 2 1 1 1 1 0 1 0 0 0 0 0 0 1 1 1 2 0 2 2 1 1 0 0 0 0 0 0 0 0 0 0
0 0 0 0 0 0 1 0 1 0 0 1 1 1 1 1 1 1 1 1 1 1 1 0 0 1 1 1 1 1 1 1 1 1 0 0 0 0 0 0 0 0 0
0 0 0 0 0 0 0 0 0 0 0 0 0 0 0 0 0 0 1 1 1 1 1 1 0 1 1 1 1 1 1 1 1 0 0 0 0 0 0 0 0 0 0
0 0 0 0 0 0 0 0 0 0 0 0 0 0 0 0 0 0 0 0 0 1 1 1 1 1 1 1 1 0 1 1 1 1 0 0 0 0 0 0 0 0 0
0 0 0 0 0 0 0 0 0 0 0 0 0 0 0 0 0 0 0 0 0 0 0 1 1 1 1 1 1 1 1 1 1 1 0 0 0 0 0 0 0 0 0
0 0 0 0 0 0 0 0 0 0 0 0 0 0 0 0 0 0 0 0 0 0 0 1 0 1 1 1 1 1 1 1 1 1 1 0 0 0 0 0 0 0 0
0 0 0 0 0 0 0 0 0 -0 0 0 0 0 0 0 0 0 0 0 0 0 0 0 0 1 1 1 1 1 1 1 1 1 1 0 0 0 0 0 0 0 0
0 0 0 0 0 0 0 0 0 0 0 0 0 0 0 0 0 0 0 0 0 0 0 0 0 0 0 0 0 1 1 1 1 0 1 0 1 0 0 0 0 0 0
0 0 0 0 0 0 0 0 0 0 0 0 0 0 0 0 0 0 0 0 0 0 0 0 0 0 0 0 0 0 0 0 0 0 0 0 0 0 0 0 0 0 0
0 0 0 -0 0 0 0 0 0 0 0 0 0 0 0 0 0 0 0 0 0 0 0 0 0 0 0 0 0 0 0 0 0 0 0 0 0 0 0 0 0 0 0
Wind_Speed_500mb
29 20 21 27 17 13 9 11 4 19 8 11 6 9 10 18 20 24 19 26 25 18 13 13 9 8 13 18 17 16 16 14 13 12 12 13 14 15 16 16 16 15 15
29 32 26 26 27 20 17 17 19 20 6 12 21 21 17 15 13 10 13 16 21 22 16 14 11 10 10 15 17 19 16 13 9 7 8 9 10 13 16 16 15 15 16
33 34 29 27 24 22 24 21 27 15 23 21 22 21 25 15 18 24 20 23 22 23 17 20 13 11 10 12 14 14 13 10 8 7 6 7 9 11 14 16 16 16 17
40 41 40 32 30 30 27 28 27 30 33 33 21 28 25 17 17 22 21 23 27 19 18 20 14 12 9 10 12 12 12 10 9 7 7 8 9 11 14 16 16 15 16
44 48 38 41 35 36 33 31 29 26 28 30 29 35 27 28 20 24 25 18 23 22 21 24 21 19 12 10 11 12 12 11 10 7 7 8 8 10 13 17 16 15 16
42 44 48 39 40 40 42 40 34 35 26 17 22 29 31 31 32 26 24 28 33 35 34 31 29 22 15 8 9 10 12 11 9 8 5 4 5 9 13 18 18 16 17
57 57 57 50 53 53 26 30 42 43 47 30 23 20 27 22 22 29 23 35 35 36 36 35 35 28 23 18 14 13 14 12 10 8 5 2 4 8 13 19 21 19 20
69 62 65 52 47 50 48 50 46 42 37 34 37 29 44 34 22 35 37 40 38 39 42 41 40 32 33 31 28 25 21 16 16 13 8 5 4 9 14 19 21 20 20
67 72 69 60 65 61 58 61 51 41 39 55 53 40 21 24 23 18 42 35 47 45 46 46 43 42 41 43 34 29 29 27 24 22 17 12 9 11 15 19 23 22 21
42 55 67 63 61 66 65 62 45 36 50 52 43 50 70 52 16 17 37 49 58 53 49 45 45 48 45 44 48 42 33 26 27 28 26 21 17 15 16 19 22 22 21
25 40 44 48 53 64 63 59 47 48 49 41 36 44 56 49 36 34 49 47 33 44 52 40 43 39 53 45 38 50 47 40 36 38 35 30 27 21 20 21 23 24 22
32 40 43 46 54 71 68 64 52 35 39 34 38 38 44 51 41 38 40 48 48 44 55 51 51 59 42 53 43 38 38 36 34 33 36 34 35 31 26 25 24 25 23
26 25 23 37 46 49 48 56 18 23 30 32 41 44 41 51 50 36 40 43 48 49 42 38 43 29 62 64 70 46 33 36 45 46 43 41 40 36 33 30 27 28 24
1 8 12 8 23 36 53 20 22 30 36 30 43 58 65 64 64 61 60 55 59 75 76 66 44 39 49 87 66 27 39 32 41 44 45 43 42 39 39 35 31 31 28
11 5 4 3 9 11 13 24 14 18 21 41 42 39 41 48 61 72 74 77 69 67 76 70 58 49 51 59 42 45 47 46 51 51 54 50 47 43 41 41 37 33 30
19 17 19 20 17 12 19 18 12 9 17 23 34 37 41 43 46 48 54 60 61 63 69 64 56 44 45 55 39 21 28 44 46 50 52 55 48 46 44 46 43 39 33
23 17 14 11 11 12 17 19 23 26 19 22 23 32 32 34 40 45 44 50 51 51 60 61 55 48 36 35 25 28 42 49 45 47 43 40 38 49 48 50 48 44 38
25 20 18 22 16 11 6 13 11 14 13 16 20 25 25 34 34 30 29 34 40 43 49 62 60 53 43 33 36 37 35 30 37 39 36 36 42 41 47 53 54 50 44
30 29 28 26 23 26 25 17 16 19 18 8 16 22 27 25 21 33 37 38 38 37 38 42 54 53 45 47 46 37 35 33 28 27 25 34 39 37 41 51 57 55 50
28 35 37 36 31 36 36 29 31 29 27 19 17 24 27 26 31 34 37 39 38 43 40 33 39 46 43 41 36 35 34 31 28 24 30 28 37 43 48 51 59 60 57
34 36 34 29 31 28 27 32 38 44 39 37 28 21 22 31 41 41 38 32 33 33 36 37 35 35 38 32 33 37 34 36 35 32 34 34 40 43 43 52 60 65 63
34 41 46 34 30 26 29 36 41 46 42 41 39 37 28 28 32 31 28 32 30 30 26 26 31 37 43 41 41 41 40 37 40 41 36 36 39 47 46 46 48 61 65
39 43 38 35 30 31 29 36 40 43 39 41 45 41 41 34 39 38 31 27 22 26 24 26 33 29 25 21 28 33 33 33 35 34 40 41 39 38 41 45 42 44 64
37 39 40 35 33 33 32 35 38 42 37 26 22 26 33 41 49 49 41 44 44 40 33 29 37 34 32 30 27 24 28 30 31 25 26 31 37 38 41 41 41 51 46
50 45 40 35 33 32 34 34 39 39 38 27 21 26 29 32 38 43 53 54 54 55 49 41 37 38 42 43 44 47 44 40 38 32 27 38 41 42 36 36 35 40 63
52 38 39 39 31 33 34 32 38 36 42 35 22 24 32 34 31 39 41 42 48 47 50 55 54 45 37 40 40 39 41 45 44 41 32 37 42 29 31 32 18 19 29
Wind_Direction_500mb
204 243 210 247 269 262 239 236 189 241 263 250 196 258 258 263 253 306 318 313 319 315 288 301 283 264 228 225 234 231 239 260 276 278 291 308 316 319 317 315 315 317 312
210 224 213 220 221 245 243 255 258 244 272 283 244 266 236 248 262 282 308 301 314 329 309 304 287 279 264 241 237 237 238 245 250 257 284 306 320 327 326 322 318 312 312
216 236 218 225 226 224 236 244 242 229 268 250 248 252 273 223 231 245 265 285 294 313 311 325 301 287 263 238 232 232 233 222 221 236 265 295 309 329 337 327 318 318 316
231 229 219 213 228 227 234 241 243 253 265 263 255 252 247 228 236 240 264 261 276 282 302 313 318 297 268 231 214 204 206 213 221 234 260 285 309 331 334 333 322 315 314
248 223 232 216 222 225 224 232 242 250 255 262 268 257 242 239 233 238 253 240 258 279 281 281 291 292 263 239 212 200 199 207 221 236 267 291 310 326 331 338 325 315 314
231 235 234 222 218 227 225 226 230 238 249 246 248 283 270 233 253 242 240 244 246 250 256 261 273 270 251 259 232 214 213 211 215 229 242 288 314 322 339 340 333 323 319
232 233 238 231 222 231 230 228 231 231 233 234 253 311 301 241 255 247 240 255 247 244 246 254 260 268 247 280 262 242 229 222 216 223 244 302 323 321 332 339 339 332 325
231 231 233 233 226 225 217 224 218 224 240 243 261 292 289 258 266 238 250 243 252 239 243 243 249 259 253 259 263 261 245 241 239 232 237 256 318 320 329 331 336 332 328
243 240 238 225 227 225 224 223 226 228 258 261 248 250 225 220 259 272 238 252 240 240 231 241 244 245 250 248 247 248 255 257 254 253 255 268 290 309 327 330 333 330 326
249 239 231 234 227 229 226 228 226 251 252 261 257 256 246 247 193 118 203 262 256 237 243 229 245 247 259 261 256 251 254 255 254 259 261 262 269 286 307 320 324 323 321
222 233 241 240 234 240 224 221 223 239 256 259 257 254 248 225 234 233 251 249 276 250 235 222 229 271 256 265 261 252 254 253 258 264 265 268 269 273 285 300 312 316 313
214 232 233 244 233 294 260 230 224 235 257 246 238 253 224 225 237 227 251 265 274 277 271 251 236 262 264 257 254 265 258 260 260 263 266 266 265 268 275 280 295 305 304
237 227 236 275 263 253 273 0 349 305 286 242 233 235 232 240 252 253 259 264 272 277 297 276 205 249 252 239 241 235 241 252 263 263 267 266 265 264 264 267 279 289 295
214 249 241 283 324 307 305 286 288 293 297 290 247 241 242 250 256 253 262 267 279 278 282 283 291 287 272 242 229 224 256 259 257 263 263 261 262 265 260 257 263 278 289
340 306 274 250 140 175 170 197 203 235 284 282 284 275 268 262 251 254 264 255 277 271 280 279 281 281 288 268 255 283 282 252 254 266 271 262 260 262 261 252 252 264 277
328 330 339 326 307 276 261 255 223 233 259 270 289 277 270 270 271 269 268 267 267 264 266 279 282 279 284 287 293 300 220 243 263 270 270 269 262 256 255 248 246 253 264
330 317 318 310 307 329 319 296 274 239 256 302 285 305 308 296 276 274 276 271 274 272 272 281 277 275 274 254 250 211 239 266 276 277 281 274 274 256 252 242 241 246 255
308 311 307 292 299 295 277 273 318 297 301 308 308 296 314 307 302 304 293 287 280 272 271 276 279 276 260 267 264 262 254 271 296 276 275 272 266 268 259 243 238 241 246
336 324 288 280 292 295 308 291 315 285 293 278 316 315 307 303 314 297 289 290 293 291 276 273 277 278 272 267 266 272 273 285 297 297 289 275 267 261 260 244 238 239 244
328 330 334 318 284 265 267 282 285 285 283 288 281 303 316 320 309 299 309 306 293 283 287 286 275 277 273 266 261 276 270 282 290 276 273 280 277 267 263 254 241 239 239
320 312 308 314 324 320 307 289 287 287 279 275 272 277 298 304 307 309 311 324 319 308 289 283 284 285 280 280 267 270 276 272 268 287 280 266 272 273 267 263 249 239 240
322 316 319 296 305 318 301 299 293 288 284 283 278 267 271 284 307 299 311 311 318 323 328 317 297 281 279 284 280 278 281 283 289 286 279 271 270 272 274 277 265 253 245
307 308 307 302 303 300 297 302 303 308 304 287 275 274 272 264 275 296 287 304 309 296 317 315 312 303 293 289 283 281 279 281 279 278 278 275 274 266 274 275 269 273 257
301 303 299 296 293 295 296 296 303 310 311 302 307 303 287 273 268 279 290 287 278 281 278 308 306 297 292 284 279 287 294 292 289 295 284 293 283 280 264 276 269 281 264
302 297 287 286 288 288 292 298 301 306 314 298 288 290 293 291 291 283 272 284 285 281 279 272 279 276 276 280 278 278 277 278 275 269 265 291 293 293 292 294 298 281 261
297 299 284 284 287 279 285 288 295 305 310 308 289 288 297 285 283 284 283 286 289 290 288 276 261 266 265 262 271 278 277 275 274 276 271 270 282 277 288 294 291 325 315
Wind_Speed_850mb
29 20 21 27 17 13 9 11 4 19 8 11 6 9 10 18 20 24 19 26 25 18 13 13 9 8 13 18 17 16 16 14 13 12 12 13 14 15 16 16 16 15 15
29 32 26 26 27 20 17 17 19 20 6 12 21 21 17 15 13 10 13 16 21 22 16 14 11 10 10 15 17 19 16 13 9 7 8 9 10 13 16 16 15 15 16
33 34 29 27 24 22 24 21 27 15 23 21 22 21 25 15 18 24 20 23 22 23 17 20 13 11 10 12 14 14 13 10 8 7 6 7 9 11 14 16 16 16 17
40 41 40 32 30 30 27 28 27 30 33 33 21 28 25 17 17 22 21 23 27 19 18 20 14 12 9 10 12 12 12 10 9 7 7 8 9 11 14 16 16 15 16
44 48 38 41 35 36 33 31 29 26 28 30 29 35 27 28 20 24 25 18 23 22 21 24 21 19 12 10 11 12 12 11 10 7 7 8 8 10 13 17 16 15 16
42 44 48 39 40 40 42 40 34 35 26 17 22 29 31 31 32 26 24 28 33 35 34 31 29 22 15 8 9 10 12 11 9 8 5 4 5 9 13 18 18 16 17
57 57 57 50 53 53 26 30 42 43 47 30 23 20 27 22 22 29 23 35 35 36 36 35 35 28 23 18 14 13 14 12 10 8 5 2 4 8 13 19 21 19 20
69 62 65 52 47 50 48 50 46 42 37 34 37 29 44 34 22 35 37 40 38 39 42 41 40 32 33 31 28 25 21 16 16 13 8 5 4 9 14 19 21 20 20
67 72 69 60 65 61 58 61 51 41 39 55 53 40 21 24 23 18 42 35 47 45 46 46 43 42 41 43 34 29 29 27 24 22 17 12 9 11 15 19 23 22 21
42 55 67 63 61 66 65 62 45 36 50 52 43 50 70 52 16 17 37 49 58 53 49 45 45 48 45 44 48 42 33 26 27 28 26 21 17 15 16 19 22 22 21
25 40 44 48 53 64 63 59 47 48 49 41 36 44 56 49 36 34 49 47 33 44 52 40 43 39 53 45 38 50 47 40 36 38 35 30 27 21 20 21 23 24 22
32 40 43 46 54 71 68 64 52 35 39 34 38 38 44 51 41 38 40 48 48 44 55 51 51 59 42 53 43 38 38 36 34 33 36 34 35 31 26 25 24 25 23
26 25 23 37 46 49 48 56 18 23 30 32 41 44 41 51 50 36 40 43 48 49 42 38 43 29 62 64 70 46 33 36 45 46 43 41 40 36 33 30 27 28 24
1 8 12 8 23 36 53 20 22 30 36 30 43 58 65 64 64 61 60 55 59 75 76 66 44 39 49 87 66 27 39 32 41 44 45 43 42 39 39 35 31 31 28
11 5 4 3 9 11 13 24 14 18 21 41 42 39 41 48 61 72 74 77 69 67 76 70 58 49 51 59 42 45 47 46 51 51 54 50 47 43 41 41 37 33 30
19 17 19 20 17 12 19 18 12 9 17 23 34 37 41 43 46 48 54 60 61 63 69 64 56 44 45 55 39 21 28 44 46 50 52 55 48 46 44 46 43 39 33
23 17 14 11 11 12 17 19 23 26 19 22 23 32 32 34 40 45 44 50 51 51 60 61 55 48 36 35 25 28 42 49 45 47 43 40 38 49 48 50 48 44 38
25 20 18 22 16 11 6 13 11 14 13 16 20 25 25 34 34 30 29 34 40 43 49 62 60 53 43 33 36 37 35 30 37 39 36 36 42 41 47 53 54 50 44
30 29 28 26 23 26 25 17 16 19 18 8 16 22 27 25 21 33 37 38 38 37 38 42 54 53 45 47 46 37 35 33 28 27 25 34 39 37 41 51 57 55 50
28 35 37 36 31 36 36 29 31 29 27 19 17 24 27 26 31 34 37 39 38 43 40 33 39 46 43 41 36 35 34 31 28 24 30 28 37 43 48 51 59 60 57
34 36 34 29 31 28 27 32 38 44 39 37 28 21 22 31 41 41 38 32 33 33 36 37 35 35 38 32 33 37 34 36 35 32 34 34 40 43 43 52 60 65 63
34 41 46 34 30 26 29 36 41 46 42 41 39 37 28 28 32 31 28 32 30 30 26 26 31 37 43 41 41 41 40 37 40 41 36 36 39 47 46 46 48 61 65
39 43 38 35 30 31 29 36 40 43 39 41 45 41 41 34 39 38 31 27 22 26 24 26 33 29 25 21 28 33 33 33 35 34 40 41 39 38 41 45 42 44 64
37 39 40 35 33 33 32 35 38 42 37 26 22 26 33 41 49 49 41 44 44 40 33 29 37 34 32 30 27 24 28 30 31 25 26 31 37 38 41 41 41 51 46
50 45 40 35 33 32 34 34 39 39 38 27 21 26 29 32 38 43 53 54 54 55 49 41 37 38 42 43 44 47 44 40 38 32 27 38 41 42 36 36 35 40 63
52 38 39 39 31 33 34 32 38 36 42 35 22 24 32 34 31 39 41 42 48 47 50 55 54 45 37 40 40 39 41 45 44 41 32 37 42 29 31 32 18 19 29
Wind_Direction_850mb
204 243 210 247 269 262 239 236 189 241 263 250 196 258 258 263 253 306 318 313 319 315 288 301 283 264 228 225 234 231 239 260 276 278 291 308 316 319 317 315 315 317 312
210 224 213 220 221 245 243 255 258 244 272 283 244 266 236 248 262 282 308 301 314 329 309 304 287 279 264 241 237 237 238 245 250 257 284 306 320 327 326 322 318 312 312
216 236 218 225 226 224 236 244 242 229 268 250 248 252 273 223 231 245 265 285 294 313 311 325 301 287 263 238 232 232 233 222 221 236 265 295 309 329 337 327 318 318 316
231 229 219 213 228 227 234 241 243 253 265 263 255 252 247 228 236 240 264 261 276 282 302 313 318 297 268 231 214 204 206 213 221 234 260 285 309 331 334 333 322 315 314
248 223 232 216 222 225 224 232 242 250 255 262 268 257 242 239 233 238 253 240 258 279 281 281 291 292 263 239 212 200 199 207 221 236 267 291 310 326 331 338 325 315 314
231 235 234 222 218 227 225 226 230 238 249 246 248 283 270 233 253 242 240 244 246 250 256 261 273 270 251 259 232 214 213 211 215 229 242 288 314 322 339 340 333 323 319
232 233 238 231 222 231 230 228 231 231 233 234 253 311 301 241 255 247 240 255 247 244 246 254 260 268 247 280 262 242 229 222 216 223 244 302 323 321 332 339 339 332 325
231 231 233 233 226 225 217 224 218 224 240 243 261 292 289 258 266 238 250 243 252 239 243 243 249 259 253 259 263 261 245 241 239 232 237 256 318 320 329 331 336 332 328
243 240 238 225 227 225 224 223 226 228 258 261 248 250 225 220 259 272 238 252 240 240 231 241 244 245 250 248 247 248 255 257 254 253 255 268 290 309 327 330 333 330 326
249 239 231 234 227 229 226 228 226 251 252 261 257 256 246 247 193 118 203 262 256 237 243 229 245 247 259 261 256 251 254 255 254 259 261 262 269 286 307 320 324 323 321
222 233 241 240 234 240 224 221 223 239 256 259 257 254 248 225 234 233 251 249 276 250 235 222 229 271 256 265 261 252 254 253 258 264 265 268 269 273 285 300 312 316 313
214 232 233 244 233 294 260 230 224 235 257 246 238 253 224 225 237 227 251 265 274 277 271 251 236 262 264 257 254 265 258 260 260 263 266 266 265 268 275 280 295 305 304
237 227 236 275 263 253 273 0 349 305 286 242 233 235 232 240 252 253 259 264 272 277 297 276 205 249 252 239 241 235 241 252 263 263 267 266 265 264 264 267 279 289 295
214 249 241 283 324 307 305 286 288 293 297 290 247 241 242 250 256 253 262 267 279 278 282 283 291 287 272 242 229 224 256 259 257 263 263 261 262 265 260 257 263 278 289
340 306 274 250 140 175 170 197 203 235 284 282 284 275 268 262 251 254 264 255 277 271 280 279 281 281 288 268 255 283 282 252 254 266 271 262 260 262 261 252 252 264 277
328 330 339 326 307 276 261 255 223 233 259 270 289 277 270 270 271 269 268 267 267 264 266 279 282 279 284 287 293 300 220 243 263 270 270 269 262 256 255 248 246 253 264
330 317 318 310 307 329 319 296 274 239 256 302 285 305 308 296 276 274 276 271 274 272 272 281 277 275 274 254 250 211 239 266 276 277 281 274 274 256 252 242 241 246 255
308 311 307 292 299 295 277 273 318 297 301 308 308 296 314 307 302 304 293 287 280 272 271 276 279 276 260 267 264 262 254 271 296 276 275 272 266 268 259 243 238 241 246
336 324 288 280 292 295 308 291 315 285 293 278 316 315 307 303 314 297 289 290 293 291 276 273 277 278 272 267 266 272 273 285 297 297 289 275 267 261 260 244 238 239 244
328 330 334 318 284 265 267 282 285 285 283 288 281 303 316 320 309 299 309 306 293 283 287 286 275 277 273 266 261 276 270 282 290 276 273 280 277 267 263 254 241 239 239
320 312 308 314 324 320 307 289 287 287 279 275 272 277 298 304 307 309 311 324 319 308 289 283 284 285 280 280 267 270 276 272 268 287 280 266 272 273 267 263 249 239 240
322 316 319 296 305 318 301 299 293 288 284 283 278 267 271 284 307 299 311 311 318 323 328 317 297 281 279 284 280 278 281 283 289 286 279 271 270 272 274 277 265 253 245
307 308 307 302 303 300 297 302 303 308 304 287 275 274 272 264 275 296 287 304 309 296 317 315 312 303 293 289 283 281 279 281 279 278 278 275 274 266 274 275 269 273 257
301 303 299 296 293 295 296 296 303 310 311 302 307 303 287 273 268 279 290 287 278 281 278 308 306 297 292 284 279 287 294 292 289 295 284 293 283 280 264 276 269 281 264
302 297 287 286 288 288 292 298 301 306 314 298 288 290 293 291 291 283 272 284 285 281 279 272 279 276 276 280 278 278 277 278 275 269 265 291 293 293 292 294 298 281 261
297 299 284 284 287 279 285 288 295 305 310 308 289 288 297 285 283 284 283 286 289 290 288 276 261 266 265 262 271 278 277 275 274 276 271 270 282 277 288 294 291 325 315